When you browse on this site, cookies collect data to enhance your experience and personalize the content and advertising you see.
Visit our Privacy Policy to learn more. By continuing to use the site, you agree to this use of cookies and data.
  • în România
  • Lista ţărilor
  • Pe 7 zile
  • Temperatura apei
  • Hartă satelitară
  • Meteo pe hartă
  • Widget-uri
  • user-avatar
    Intrare

    Meteo pe oră la Dubovyy Umet

    Astăzi, 20 Ianuarie, Duminică

    Timp Temperatura Precipitaţii Vânt Presiune Umiditate
    00:00 -2°C° 0.6 mm 4 m/s 744 mmHg 95%
    01:00 -2°C° 0.4 mm 4 m/s 744 mmHg 94%
    02:00 -4°C° 0.4 mm 5 m/s 744 mmHg 94%
    03:00 -5°C° 0 mm 5 m/s 744 mmHg 93%
    04:00 -6°C° 0 mm 5 m/s 745 mmHg 92%
    05:00 -8°C° 0 mm 5 m/s 745 mmHg 91%
    06:00 -11°C° 0 mm 5 m/s 746 mmHg 90%
    07:00 -11°C° 0 mm 4 m/s 746 mmHg 91%
    08:00 -14°C° 0 mm 4 m/s 747 mmHg 91%
    09:00 -14°C° 0 mm 3 m/s 748 mmHg 91%
    10:00 -14°C° 0 mm 3 m/s 748 mmHg 91%
    11:00 -14°C° 0 mm 4 m/s 749 mmHg 92%
    12:00 -14°C° 0 mm 4 m/s 750 mmHg 93%
    13:00 -12°C° 0 mm 3 m/s 750 mmHg 92%
    14:00 -12°C° 0 mm 3 m/s 750 mmHg 92%
    15:00 -12°C° 0 mm 3 m/s 751 mmHg 92%
    16:00 -12°C° 0 mm 3 m/s 751 mmHg 92%
    17:00 -13°C° 0 mm 3 m/s 751 mmHg 92%
    18:00 -12°C° 0 mm 2 m/s 752 mmHg 92%
    19:00 -14°C° 0 mm 3 m/s 752 mmHg 93%
    20:00 -15°C° 0 mm 3 m/s 752 mmHg 93%
    21:00 -16°C° 0 mm 3 m/s 752 mmHg 93%
    22:00 -17°C° 0 mm 3 m/s 752 mmHg 93%
    23:00 -17°C° 0 mm 3 m/s 752 mmHg 93%

    Mâine, 21 Ianuarie, Luni

    Timp Temperatura Precipitaţii Vânt Presiune Umiditate
    00:00 -17°C° 0 mm 3 m/s 752 mmHg 93%
    01:00 -18°C° 0 mm 4 m/s 753 mmHg 94%
    02:00 -18°C° 0 mm 4 m/s 753 mmHg 95%
    03:00 -18°C° 0 mm 4 m/s 753 mmHg 95%
    04:00 -18°C° 0 mm 4 m/s 752 mmHg 95%
    05:00 -19°C° 0 mm 5 m/s 752 mmHg 95%
    06:00 -19°C° 0 mm 5 m/s 752 mmHg 96%
    07:00 -18°C° 0 mm 5 m/s 752 mmHg 96%
    08:00 -18°C° 0 mm 6 m/s 752 mmHg 96%
    09:00 -18°C° 0 mm 6 m/s 752 mmHg 96%
    10:00 -17°C° 0 mm 6 m/s 752 mmHg 95%
    11:00 -17°C° 0 mm 6 m/s 752 mmHg 94%
    12:00 -16°C° 0 mm 6 m/s 751 mmHg 93%
    13:00 -16°C° 0 mm 6 m/s 751 mmHg 93%
    14:00 -16°C° 0 mm 6 m/s 750 mmHg 92%
    15:00 -15°C° 0 mm 6 m/s 750 mmHg 92%
    16:00 -15°C° 0.2 mm 6 m/s 749 mmHg 92%
    17:00 -15°C° 0.2 mm 6 m/s 748 mmHg 92%
    18:00 -16°C° 0.2 mm 6 m/s 748 mmHg 92%
    19:00 -15°C° 0.7 mm 7 m/s 747 mmHg 93%
    20:00 -14°C° 0.7 mm 7 m/s 746 mmHg 94%
    21:00 -13°C° 0.7 mm 7 m/s 745 mmHg 94%
    22:00 -12°C° 0.9 mm 7 m/s 744 mmHg 94%
    23:00 -11°C° 0.9 mm 6 m/s 743 mmHg 94%

    Poimâine, 22 Ianuarie, Marţi

    Timp Temperatura Precipitaţii Vânt Presiune Umiditate
    00:00 -10°C° 0.9 mm 6 m/s 742 mmHg 94%
    01:00 -9°C° 0.7 mm 6 m/s 742 mmHg 94%
    02:00 -8°C° 0.7 mm 6 m/s 742 mmHg 94%
    03:00 -6°C° 0.7 mm 5 m/s 741 mmHg 95%
    04:00 -10°C° 0 mm 5 m/s 742 mmHg 94%
    05:00 -11°C° 0 mm 4 m/s 742 mmHg 94%
    06:00 -15°C° 0 mm 4 m/s 742 mmHg 93%
    07:00 -15°C° 0 mm 4 m/s 743 mmHg 93%
    08:00 -15°C° 0 mm 4 m/s 744 mmHg 93%
    09:00 -16°C° 0 mm 4 m/s 745 mmHg 93%
    10:00 -15°C° 0 mm 4 m/s 746 mmHg 91%
    11:00 -15°C° 0 mm 4 m/s 746 mmHg 89%
    12:00 -15°C° 0 mm 4 m/s 747 mmHg 87%
    13:00 -16°C° 0 mm 4 m/s 748 mmHg 88%
    14:00 -16°C° 0 mm 3 m/s 748 mmHg 89%
    15:00 -17°C° 0 mm 3 m/s 748 mmHg 91%
    16:00 -18°C° 0 mm 3 m/s 749 mmHg 92%
    17:00 -19°C° 0 mm 3 m/s 749 mmHg 92%
    18:00 -21°C° 0 mm 3 m/s 750 mmHg 93%
    19:00 -22°C° 0 mm 3 m/s 750 mmHg 94%
    20:00 -22°C° 0 mm 3 m/s 750 mmHg 95%
    21:00 -23°C° 0 mm 3 m/s 751 mmHg 96%
    22:00 -24°C° 0 mm 3 m/s 751 mmHg 96%
    23:00 -24°C° 0 mm 3 m/s 752 mmHg 96%

    23 Ianuarie, Miercuri

    Timp Temperatura Precipitaţii Vânt Presiune Umiditate
    00:00 -25°C° 0 mm 3 m/s 752 mmHg 97%
    01:00 -26°C° 0 mm 3 m/s 752 mmHg 97%
    02:00 -26°C° 0 mm 3 m/s 753 mmHg 97%
    03:00 -27°C° 0 mm 3 m/s 753 mmHg 97%
    04:00 -26°C° 0 mm 2 m/s 754 mmHg 98%
    05:00 -26°C° 0 mm 2 m/s 754 mmHg 98%
    06:00 -27°C° 0 mm 2 m/s 755 mmHg 98%
    07:00 -27°C° 0 mm 2 m/s 755 mmHg 98%
    08:00 -26°C° 0 mm 2 m/s 756 mmHg 97%
    09:00 -26°C° 0 mm 2 m/s 756 mmHg 97%
    10:00 -25°C° 0 mm 2 m/s 757 mmHg 96%
    11:00 -24°C° 0 mm 2 m/s 757 mmHg 95%
    12:00 -21°C° 0 mm 2 m/s 757 mmHg 94%
    13:00 -21°C° 0 mm 2 m/s 758 mmHg 95%
    14:00 -21°C° 0 mm 2 m/s 758 mmHg 95%
    15:00 -21°C° 0 mm 2 m/s 758 mmHg 95%
    16:00 -23°C° 0 mm 2 m/s 758 mmHg 96%
    17:00 -23°C° 0 mm 2 m/s 759 mmHg 96%
    18:00 -24°C° 0 mm 2 m/s 759 mmHg 97%
    19:00 -25°C° 0 mm 3 m/s 759 mmHg 97%
    20:00 -25°C° 0 mm 3 m/s 759 mmHg 97%
    21:00 -25°C° 0 mm 3 m/s 759 mmHg 97%
    22:00 -25°C° 0 mm 3 m/s 760 mmHg 96%
    23:00 -25°C° 0 mm 3 m/s 760 mmHg 96%

    24 Ianuarie, Joi

    Timp Temperatura Precipitaţii Vânt Presiune Umiditate
    00:00 -25°C° 0 mm 3 m/s 760 mmHg 95%
    01:00 -25°C° 0 mm 3 m/s 760 mmHg 95%
    02:00 -25°C° 0 mm 3 m/s 760 mmHg 96%
    03:00 -26°C° 0 mm 4 m/s 760 mmHg 96%
    04:00 -26°C° 0 mm 4 m/s 760 mmHg 96%
    05:00 -26°C° 0 mm 4 m/s 760 mmHg 96%
    06:00 -26°C° 0 mm 4 m/s 760 mmHg 96%
    07:00 -25°C° 0 mm 4 m/s 760 mmHg 95%
    08:00 -26°C° 0 mm 5 m/s 760 mmHg 94%
    09:00 -25°C° 0 mm 5 m/s 760 mmHg 94%
    10:00 -25°C° 0 mm 5 m/s 760 mmHg 92%
    11:00 -24°C° 0 mm 5 m/s 760 mmHg 91%
    12:00 -23°C° 0 mm 6 m/s 760 mmHg 89%
    13:00 -22°C° 0 mm 5 m/s 760 mmHg 89%
    14:00 -22°C° 0 mm 5 m/s 760 mmHg 88%
    15:00 -22°C° 0 mm 5 m/s 760 mmHg 88%
    16:00 -24°C° 0 mm 5 m/s 759 mmHg 88%
    17:00 -24°C° 0 mm 5 m/s 759 mmHg 87%
    18:00 -25°C° 0 mm 5 m/s 759 mmHg 87%
    19:00 -25°C° 0 mm 5 m/s 759 mmHg 86%
    20:00 -25°C° 0 mm 5 m/s 759 mmHg 86%
    21:00 -25°C° 0 mm 4 m/s 759 mmHg 85%
    22:00 -25°C° 0 mm 4 m/s 759 mmHg 85%
    23:00 -25°C° 0 mm 4 m/s 759 mmHg 85%

    25 Ianuarie, Vineri

    Timp Temperatura Precipitaţii Vânt Presiune Umiditate
    00:00 -26°C° 0 mm 4 m/s 759 mmHg 85%
    01:00 -26°C° 0 mm 4 m/s 759 mmHg 87%
    02:00 -25°C° 0 mm 3 m/s 759 mmHg 88%
    03:00 -26°C° 0 mm 3 m/s 758 mmHg 89%
    04:00 -25°C° 0 mm 3 m/s 758 mmHg 89%
    05:00 -25°C° 0 mm 3 m/s 758 mmHg 90%
    06:00 -24°C° 0 mm 3 m/s 758 mmHg 91%
    07:00 -23°C° 0 mm 3 m/s 758 mmHg 90%
    08:00 -22°C° 0 mm 3 m/s 758 mmHg 90%
    09:00 -21°C° 0 mm 3 m/s 758 mmHg 89%
    10:00 -21°C° 0 mm 3 m/s 758 mmHg 89%
    11:00 -18°C° 0 mm 2 m/s 758 mmHg 89%
    12:00 -17°C° 0 mm 2 m/s 757 mmHg 88%
    13:00 -16°C° 0.1 mm 2 m/s 757 mmHg 89%
    14:00 -16°C° 0.1 mm 2 m/s 757 mmHg 91%
    15:00 -16°C° 0.1 mm 2 m/s 757 mmHg 92%
    16:00 -16°C° 0.2 mm 2 m/s 756 mmHg 92%
    17:00 -17°C° 0.2 mm 3 m/s 756 mmHg 92%
    18:00 -17°C° 0.2 mm 3 m/s 756 mmHg 93%
    19:00 -17°C° 0.3 mm 3 m/s 756 mmHg 93%
    20:00 -16°C° 0.3 mm 3 m/s 756 mmHg 94%
    21:00 -17°C° 0.3 mm 4 m/s 756 mmHg 94%
    22:00 -16°C° 0.7 mm 3 m/s 755 mmHg 95%
    23:00 -16°C° 0.7 mm 3 m/s 755 mmHg 96%
    Arată mai mult